TITAN 3C TRANSTAGE DEB, 39297

Orbit data source: Space-Track

TITAN 3C TRANSTAGE DEB, 39297 is space debris in GEO originally from a launch on Thu, 26 Sep 1968 UTC launched from the Air Force Eastern Test Range (AFETR). Debris objects in space refer to the collection of defunct objects orbiting the Earth. Examples of debris include non-operational satellites, rocket bodies, and fragments generated from explosions, collisions, or faulty payload assembly.

Not visible in the next 10 days
Identifier
39297, 1968-081AH
Orbit
GEO
Country
Flag of USUS
Related business
Manufacturer
Unknown
Mission
Spacecraft
Bus & Motor
Unknown
Mass
Unknown
Launch date (UTC)
1968-09-26 (58 years ago)
Launch vehicle
Unknown
Launch site
Air Force Eastern Test Range (AFETR)
Object type
Payload
Rocket body
Debris
Shape & HBR
Unknown shape, 1.1 m
Radar Cross Section
Medium (>0.1 m² and <1 m²)

Expand to show TLE details & history
Last TLE update: 19 hours ago

TLE from 19 hours ago
0 TITAN 3C TRANSTAGE DEB
1 39297U 68081AH  26257.66580311 -.00000215  00000-0  00000-0 0  9994
2 39297   1.7288  30.4193 0183850 306.1926  52.5665  1.00369441 17375
Epoch: 2026-09-14T15:58Z
TLE epoch observation values (Epoch: 2026-09-14T15:58:45.388Z)
Latitude
-0°
Longitude
157.53836°
Altitude
35,293.321 km
Speed
3.11 km/s
True Right ascension
02h 03m 28s
True Declination
0° 00' 00"
Sunlit
Object was in daylight at epoch
Visualization orbit readout
Latitude
Unknown
Longitude
Unknown
Altitude
Unknown
Speed
Unknown
Apparent Right ascension
Unknown
Apparent Declination
Unknown
Sunlit
N/A
Visualization observer readout
Local Sidereal Time
03:24:06
Azimuth
Unknown
Elevation
Unknown
Doppler factor
Unknown
Orbital elements
Apogee altitude
36,535.026 km
Perigee altitude
34,985.595 km
Semi-major axis
42,138.448 km
Eccentricity
0.01839
Inclination
1.7288°
RAAN
30.4193°
Arg. of periapsis
306.1926°
True anomaly
54.26283°
Mean anomaly
52.5665°
Eccentric anomaly
53.41231°
Mean motion
0.25091 °/min
Orbital period
1,434.75 mins
BSTAR
0
Loading maneuver chart data...
Computing Atmospheric mass density...

Documentation

Showing up to 5 results
|